Regional Weather Roundup
Issued by NWS

Home | Current Version | Previous Version | Text Only | Print | Product List | Glossary On
Versions: 1 2 3 4 5 6 7 8 9 10 11 12 13 14 15 16 17 18 19 20 21 22 23 24 25 26 27 28 29 30 31 32 33 34 35 36 37 38 39 40 41 42 43 44 45 46 47 48 49 50
000
ASUS42 KFFC 110410
RWRGA
WEATHER ROUNDUP FOR GEORGIA
NATIONAL WEATHER SERVICE PEACHTREE CITY GA
1100 PM EST SAT DEC 10 2016

NOTE: "FAIR" INDICATES FEW OR NO CLOUDS BELOW 12,000 FEET WITH NO
SIGNIFICANT WEATHER AND/OR OBSTRUCTIONS TO VISIBILITY.

* = USE WITH CAUTION. THE STATIONS MARKED WITH AN ASTERISK MAY NOT
REPORT WEATHER SUCH AS PRECIPITATION, FOG, OR THUNDER AND ARE NOT
QUALITY CONTROLLED BY NWS.

THE REMARK "TC" DENOTES TEMPERATURE READING IN DEGREES CELSIUS.

GAZ001>058-110500-
NORTH GEORGIA

CITY           SKY/WX    TMP DP  RH WIND       PRES   REMARKS
ATLANTA        PTCLDY    38  20  48 SE3       30.42R
ATHENS         CLEAR     29  23  78 E6        30.45R WCI  23
CHAMBLEE       CLEAR     30  21  69 CALM      30.43R
PEACHTREE CITY CLEAR     27  22  81 CALM      30.44R
ROME           CLEAR     27  19  72 CALM      30.43S
WEST ATLANTA   CLEAR     29  22  75 CALM      30.44R
GAINESVILLE    CLEAR     33  19  56 E5        30.45R WCI  29
CARTERSVILLE   CLEAR     27  19  72 CALM      30.45R


CITY           SKY/WX    TMP DP  RH WIND       PRES   REMARKS
DALTON*        CLEAR     27  23  86 CALM      30.43F
MARIETTA       CLEAR     31  21  66 CALM      30.42R
KENNESAW*      CLEAR     30  21  69 CALM      30.42R
CANTON*        CLEAR     32  14  47 CALM      30.44R
$$

GAZ059>098-102>109-110500-
CENTRAL GEORGIA

CITY           SKY/WX    TMP DP  RH WIND       PRES   REMARKS
AUGUSTA-BUSH   CLEAR     30  25  81 CALM      30.48S
AUGUSTA-DANIEL CLEAR     37  23  56 E6        30.48R WCI  32
COLUMBUS       CLEAR     35  24  64 CALM      30.42R
MACON          CLEAR     31  24  75 CALM      30.44R
ROBINS AFB     CLEAR     32  26  81 CALM      30.44R


CITY           SKY/WX    TMP DP  RH WIND       PRES   REMARKS
LAGRANGE*      CLEAR     31  26  81 CALM      30.43R
SYLVANIA*      CLEAR    N/A N/A N/A E6        30.48S
MILLEDGEVILLE* CLEAR     41  30  65 E5        30.45F
$$

GAZ099>101-110>166-110500-
SOUTH GEORGIA

CITY           SKY/WX    TMP DP  RH WIND       PRES   REMARKS
SAVANNAH       CLEAR     41  26  55 NE10      30.47F
VALDOSTA       CLEAR     44  37  76 E8        30.40S
ALMA           CLEAR     37  31  78 E5        30.43F WCI  33
ST SIMONS      PTCLDY    50  43  77 N7        30.42R
FT STEWART     CLEAR     37  30  75 CALM      30.43F HAZE
ALBANY         CLEAR     37  28  70 NE7       30.43S WCI  32
HUNTER AFB     CLEAR     42  32  66 NE8       30.44S
MOODY AFB      CLEAR     41  33  72 E7        30.39F
BRUNSWICK      CLEAR     45  41  87 N6        30.44R


CITY           SKY/WX    TMP DP  RH WIND       PRES   REMARKS
BAINBRIDGE*    CLEAR     41  30  65 NE3       30.40S
MOULTRIE*      CLEAR     43  28  56 E5        30.40S
VIDALIA*       CLEAR     37  32  81 E6        30.45S WCI  33
WAYCROSS*      CLEAR     42  38  86 E5        30.43S
DOUGLAS*       CLEAR     41  30  65 E7        30.44F
$$



USA.gov is the U.S. government's official web portal to all federal, state and local government web resources and services.